Notices

What's New in latest Release from April 7th, 2021:

- Updated Glossary, including Speed of Maximum Gust, and Total Hourly Precipitation

- Updated national and regional climate services offices contacts and prices information

- Addition of station inventory lists for 1981-2010, 1971-2000, and 1961-1990 Normals.

If you haven't already, please take our survey and provide feedback about our website: https://eccc.sondage-survey.ca/f/LanguageSelection.aspx?s=442ca660-fcf1-47c0-95a9-59707d6fd709

Hourly Data Report for July 29, 2019

TORONTO CITY
ONTARIO
Current Station Operator: ECCC - MSC

43°40'00.000" N
79°24'00.000" W
112.50 m
6158355
71508
XTO

Download Data

Hourly Data (July 2019)
Hourly Data Report for July 29, 2019
TIME
LST
Temp Definition
°C
Dew Point Definition
°C
Rel Hum Definition
%
Precip. Amount Definition
mm

Wind Dir Definition
10's deg

Wind Spd Definition
km/h
Visibility Definition
km
Stn Press Definition
kPa
Hmdx Definition


Wind Chill Definition


Weather Definition


00:00 22.6 18.0 75 0.0       100.13 29   LegendNANA
01:00 22.4 18.0 76 0.0       100.07 28   LegendNANA
02:00 21.7 18.3 81 0.0       100.04 28   LegendNANA
03:00 20.8 18.0 84 0.0       100.02 27   LegendNANA
04:00 20.4 17.9 85 0.0       100.02 26   LegendNANA
05:00 20.9 18.3 85 0.0       100.00 27   LegendNANA
06:00 21.3 18.2 82 0.0       100.00 27   LegendNANA
07:00 22.4 18.4 78 0.0       100.02 29   LegendNANA
08:00 23.7 18.4 72 0.0       100.03 30   LegendNANA
09:00 25.1 19.0 69 0.0       99.99 32   LegendNANA
10:00 26.7 19.2 64 0.0       99.98 34   LegendNANA
11:00 28.0 19.6 60 0.0       99.96 35   LegendNANA
12:00 29.1 19.2 55 0.0       99.92 36   LegendNANA
13:00 28.9 17.8 51 0.0       99.86 35   LegendNANA
14:00 28.7 16.7 48 0.0       99.81 34   LegendNANA
15:00 29.5 16.7 46 0.0       99.75 35   LegendNANA
16:00 29.2 15.7 44 0.0       99.75 34   LegendNANA
17:00 27.0 14.5 46 0.0       99.72 31   LegendNANA
18:00 26.4 15.8 52 0.0       99.72 31   LegendNANA
19:00 26.4 15.7 52 0.0       99.73 31   LegendNANA
20:00 26.5 15.9 52 0.0       99.79 31   LegendNANA
21:00 25.9 15.7 54 0.0       99.81 30   LegendNANA
22:00 22.2 18.3 79 0.0       99.85 28   LegendNANA
23:00 21.1 17.4 80 0.0       99.87 27   LegendNANA

Notes on Data Quality.

Legend

  • E = Estimated
  • M = Missing
  • NA = Not Available*
  • [empty] = Indicates an unobserved value
Date modified: